Weather History for Dillon, MT

Change the Weather History Date:

Saturday, August 30, 2014

  Actual Average Record
Temperature  
Mean Temperature 60 °F 61 °F  
Max Temperature 67 °F 77 °F 93 °F (1954)
Min Temperature 52 °F 45 °F 31 °F (1965)
Degree Days  
Heating Degree Days 5    
Month to date heating degree days 69  
Since 1 June heating degree days 335  
Since 1 July heating degree days 85  
Cooling Degree Days 0    
Month to date cooling degree days 52  
Year to date cooling degree days 164  
Since 1 June cooling degree days 164  
Growing Degree Days 8 (Base 50)    
Moisture  
Dew Point 49 °F    
Average Humidity 71    
Maximum Humidity 93    
Minimum Humidity 48    
Precipitation  
Precipitation 0.09 in 0.03 in 0.70 in (1986)
Month to date precipitation 2.60 1.01  
Year to date precipitation 8.69 8.26  
Snow  
Snow 0.00 in - - ()
Snow Depth -    
Sea Level Pressure  
Sea Level Pressure 29.82 in    
Wind  
Wind Speed 7 mph (SSW)    
Max Wind Speed 31 mph    
Max Gust Speed 39 mph    
Visibility 9 miles    
Events Rain , Thunderstorm    
T = Trace of Precipitation, MM = Missing Value Source: NWS Daily Summary

Daily Weather History Graph

Daily Weather History Graph

Search for Another Location

Airport:

Trip Planner

Search our weather history database for the weather conditions in past years. The results will help you decide how hot, cold, wet, or windy it might be!

Date:

Astronomy

Aug. 30, 2014 Rise Set
Actual Time 6:49 AM MDT 8:11 PM MDT
Civil Twilight 6:18 AM MDT 8:41 PM MDT
Nautical Twilight 5:41 AM MDT 9:18 PM MDT
Astronomical Twilight 5:02 AM MDT 9:57 PM MDT
Moon 11:56 AM MDT (8/30) 10:31 PM MDT (8/30)
Length of Visible Light 14h 22m
Length of Day
13h 21m
Waxing Crescent, 23% of the Moon is Illuminated
Aug 30
Waxing Crescent
Sep 2
First Quarter
Sep 8
Full
Sep 15
Last Quarter
Sep 24
New

Hourly Weather History & Observations

Time (MDT) Temp. Dew Point Humidity Pressure Visibility Wind Dir Wind Speed Gust Speed Precip Events Conditions
12:53 AM 57.0 °F 46.0 °F 67% 29.74 in 10.0 mi ESE 8.1 mph - N/A   Clear
1:53 AM 61.0 °F 45.0 °F 56% 29.72 in 10.0 mi South 8.1 mph - N/A   Scattered Clouds
2:53 AM 55.9 °F 48.0 °F 75% 29.72 in 10.0 mi WSW 4.6 mph - N/A   Clear
3:53 AM 62.1 °F 45.0 °F 53% 29.75 in 9.0 mi South 5.8 mph - N/A   Overcast
4:53 AM 60.1 °F 48.0 °F 64% 29.78 in 7.0 mi South 9.2 mph - 0.00 in   Overcast
5:53 AM 54.0 °F 52.0 °F 93% 29.80 in 9.0 mi SSE 13.8 mph - 0.05 in Rain Light Rain
6:53 AM 55.9 °F 50.0 °F 80% 29.79 in 10.0 mi South 10.4 mph - 0.00 in   Mostly Cloudy
7:53 AM 53.1 °F 51.1 °F 93% 29.80 in 10.0 mi SW 5.8 mph - N/A   Scattered Clouds
8:53 AM 55.9 °F 52.0 °F 87% 29.79 in 10.0 mi SSW 8.1 mph - N/A   Scattered Clouds
9:53 AM 55.9 °F 52.0 °F 87% 29.79 in 9.0 mi SSW 5.8 mph - N/A   Clear
10:53 AM 59.0 °F 52.0 °F 78% 29.80 in 9.0 mi SW 6.9 mph - N/A   Clear
11:53 AM 60.1 °F 51.1 °F 72% 29.78 in 10.0 mi SW 6.9 mph - N/A   Partly Cloudy
12:53 PM 62.1 °F 52.0 °F 70% 29.77 in 10.0 mi SSW 8.1 mph - N/A   Partly Cloudy
1:53 PM 66.9 °F 46.9 °F 49% 29.73 in 10.0 mi South 9.2 mph - N/A Thunderstorm Partly Cloudy
2:08 PM 64.0 °F 46.9 °F 54% 29.91 in 9.0 mi WNW 25.3 mph 39.1 mph N/A Thunderstorm Thunderstorm
2:41 PM 51.1 °F 45.0 °F 80% 29.92 in 2.0 mi South 9.2 mph - 0.08 in Rain , Thunderstorm Light Thunderstorms and Rain
2:51 PM 51.8 °F 46.4 °F 82% 29.92 in 10.0 mi South 6.9 mph - 0.09 in Rain Light Rain
2:53 PM 52.0 °F 46.0 °F 80% 29.83 in 10.0 mi South 8.1 mph - 0.09 in Rain Light Rain
3:01 PM 52.0 °F 46.0 °F 80% 29.91 in 10.0 mi SSE 17.3 mph 20.7 mph 0.00 in Thunderstorm Overcast
3:16 PM 53.1 °F 46.0 °F 77% 29.90 in 10.0 mi South 12.7 mph - 0.00 in Rain Light Rain
3:53 PM 55.0 °F 48.0 °F 77% 29.78 in 10.0 mi South 13.8 mph - 0.01 in   Mostly Cloudy
4:53 PM 57.9 °F 48.0 °F 70% 29.77 in 10.0 mi SSW 11.5 mph - N/A   Clear
5:23 PM 55.0 °F 48.9 °F 80% 29.90 in 1.8 mi South 13.8 mph - 0.09 in Rain Light Rain
5:27 PM 55.0 °F 48.9 °F 80% 29.89 in 3.0 mi South 15.0 mph - 0.09 in Rain Light Rain
5:37 PM 55.9 °F 50.0 °F 80% 29.88 in 10.0 mi South 13.8 mph 20.7 mph 0.09 in   Mostly Cloudy
5:53 PM 57.0 °F 51.1 °F 81% 29.79 in 10.0 mi South 9.2 mph - 0.09 in   Partly Cloudy
6:53 PM 55.9 °F 50.0 °F 80% 29.80 in 9.0 mi Calm Calm - N/A   Overcast
7:04 PM 55.9 °F 50.0 °F 80% 29.91 in 10.0 mi SW 12.7 mph - 0.01 in Rain , Thunderstorm Light Rain
7:53 PM 55.9 °F 48.9 °F 77% 29.81 in 10.0 mi SSE 10.4 mph - 0.01 in   Mostly Cloudy
9:53 PM 52.0 °F 48.0 °F 86% 29.81 in 10.0 mi SSW 6.9 mph - 0.00 in   Scattered Clouds
10:53 PM 52.0 °F 46.9 °F 83% 29.80 in 10.0 mi SSW 8.1 mph - N/A   Mostly Cloudy
11:53 PM 51.1 °F 48.0 °F 89% 29.81 in 10.0 mi SW 10.4 mph - N/A   Overcast